Regional Weather Roundup
Issued by NWS Northern Indiana

Home | Current Version | Previous Version | Graphics & Text | Print | Product List | Glossary On
Versions: 1 2 3 4 5 6 7 8 9 10 11 12 13 14 15 16 17 18 19 20 21 22 23 24 25 26 27 28 29 30 31 32 33 34 35 36 37 38 39 40 41 42 43 44 45 46 47 48 49 50
000
ASUS43 KIWX 171301
RWRIWX

KIWX WEATHER ROUNDUP
NATIONAL WEATHER SERVICE NORTHERN INDIANA
900 AM EDT THU AUG 17 2017

NOTE: "FAIR" INDICATES FEW OR NO CLOUDS BELOW 12,000 FEET WITH NO
SIGNIFICANT WEATHER AND/OR OBSTRUCTIONS TO VISIBILITY.

* THESE STATIONS ARE NOT UNDER NWS QUALITY CONTROL. THEY ALSO MAY NOT
  REPORT WEATHER SUCH AS PRECIPITATION OR FOG.

INZ001>027-171400-
NORTHERN INDIANA

CITY           SKY/WX    TMP DP  RH WIND       PRES   REMARKS
GARY*          LGT RAIN  73  70  88 S6        29.81S
MICHIGAN CITY* DRIZZLE   72  68  88 SW12      29.83R
SOUTH BEND     CLOUDY    74  71  91 S10       29.84S
ELKHART*       PTSUNNY   73  70  88 S8        29.84S
GOSHEN         CLOUDY    75  70  84 S12       29.86R
MONTICELLO*    DRIZZLE   73  72  95 W5        29.86R
WARSAW*        PTSUNNY   73  72  94 SW5       29.87S
FORT WAYNE     CLOUDY    75  72  90 S7        29.89R
PERU/GRISSOM   PTSUNNY   75  75 100 S14       29.86S

$$
INZ028>050-171400-
CENTRAL INDIANA

CITY           SKY/WX    TMP DP  RH WIND       PRES   REMARKS
LAFAYETTE      LGT RAIN  73  72  96 SW6       29.86R FOG
KOKOMO*        PTSUNNY   76  74  93 S14       29.89S
MUNCIE*        PTSUNNY   79  73  82 SW8G17    29.91R
INDIANAPOLIS   CLOUDY    77  74  90 S14       29.90S

$$
MIZ043>046-050>051-056>058-064>065-071>073-077>080-171400-
SOUTHWEST LOWER MICHIGAN

CITY           SKY/WX    TMP DP  RH WIND       PRES   REMARKS
BATTLE CREEK   CLOUDY    74  72  93 S12       29.84F
BENTON HARBOR  CLOUDY    76  68  76 S8        29.81S
COLDWATER*     MOSUNNY   75  73  94 S6        29.86S
HILLSDALE*     CLOUDY    72  70  94 S6        29.88S FOG
HOLLAND        PTSUNNY   74  71  91 S7        29.80S
GRAND RAPIDS   CLOUDY    73  71  93 S8        29.81F
KALAMAZOO      PTSUNNY   75  70  84 S12       29.83S
STURGIS*       CLOUDY    73  72  94 S8        29.85S
THREE RIVERS*  FAIR      76  71  84 SW13G18   29.85S

$$
OHZ001>008-015>018-024>025-171400-
NORTHWEST OHIO

CITY           SKY/WX    TMP DP  RH WIND       PRES   REMARKS
DEFIANCE       CLOUDY    74  71  91 S9        29.89S
FINDLAY        CLOUDY    78  70  76 S14       29.91R
TOLEDO EXPRESS CLOUDY    73  73 100 S6        29.88F
TOLEDO METCALF CLOUDY    77  73  87 S7        29.90S
LIMA           CLOUDY    76  72  87 S10       29.93R

$$
AND FOR LAKE MICHIGAN COASTAL AND OPEN LAKE BUOY OBSERVATIONS

STATION/POSITION TEMP    WIND        PRES    VSBY  WAVE
                 AIR SEA DIR/SP/G                  HT/PER
                 (F)     (DEG/KT/KT) (MB)    (MI)  (FT/S)
CALUMET HARBOR    72     190/  8/ 12 1008.5S
MICHIGAN CITY     73     180/ 14/ 16   N/A
BURNS HARBOR      73     190/ 12/ 18 1010.2R
SAINT JOSEPH      75     180/  3/ 10 1010.2
SOUTH LAKE BUOY   73 71  190/ 16/ 17 1007.6          3/ 4
4 MI NW BRIDGMAN  74 74  210/ 12/ 16 1009.1R         2/ 4
MICHIGAN CITY     74 74  210/ 16/ 19   N/A           2/ 3

$$
&&




USA.gov is the U.S. government's official web portal to all federal, state and local government web resources and services.